Location: Central Falls
(41.8900°N, 71.3929°W)
Time: 10:47:35
(UTC+00:00)

Tiros 1 despin weight - Pass Details

Date: 06 December 2023
Orbit: 581 x 625 km, 48.2° (Epoch: 21 February)

Event Time Altitude Azimuth Distance (km) Brightness Sun altitude
Rises 22:27:43 0° 241° (WSW) 2,805 ? -13.2°
Reaches altitude 10° 22:30:00 10° 242° (WSW) 1,901 ? -13.6°
Maximum altitude 22:34:22 89° 338° (NNW) 586 ? -14.4°
Enters shadow 22:36:49 25° 62° (ENE) 1,180 ? -14.9°
